Radiation Dose at Monitoring Post of Fukushima Daini Nuclear Power Station
Date,Time,MP-1(microSv/h),MP-2(microSv/h),MP-3(microSv/h),MP-4(microSv/h),MP-5(microSv/h),MP-6(microSv/h),MP-7(microSv/h),Wind Direction,Wind Velocity(m/s),Rain
2015/04/27,00:00,0.546,0.335,0.576,0.537,0.560,0.254,0.228,south-southwest,3.3,No
2015/04/27,00:10,0.544,0.331,0.576,0.534,0.559,0.253,0.227,south-southwest,3.2,No
2015/04/27,00:20,0.547,0.333,0.573,0.539,0.559,0.253,0.227,south-southwest,3.4,No
2015/04/27,00:30,0.544,0.334,0.579,0.535,0.562,0.255,0.227,southwest,3.6,No
2015/04/27,00:40,0.549,0.331,0.576,0.539,0.559,0.252,0.228,south-southwest,3.6,No
2015/04/27,00:50,0.543,0.334,0.577,0.536,0.562,0.254,0.227,southwest,4.2,No
2015/04/27,01:00,0.544,0.331,0.572,0.538,0.560,0.253,0.227,south-southwest,3.4,No
2015/04/27,01:10,0.547,0.331,0.579,0.536,0.560,0.254,0.227,south-southwest,3.8,No
2015/04/27,01:20,0.542,0.335,0.576,0.535,0.559,0.255,0.228,south-southwest,4.1,No
2015/04/27,01:30,0.548,0.332,0.575,0.536,0.558,0.254,0.226,south-southwest,3.8,No
2015/04/27,01:40,0.543,0.333,0.576,0.535,0.561,0.252,0.228,south-southwest,3.6,No
2015/04/27,01:50,0.547,0.332,0.576,0.539,0.557,0.253,0.227,south,3.6,No
2015/04/27,02:00,0.543,0.332,0.577,0.537,0.561,0.253,0.227,south-southwest,3.8,No
2015/04/27,02:10,0.546,0.333,0.576,0.535,0.557,0.254,0.227,south-southwest,5.0,No
2015/04/27,02:20,0.542,0.331,0.578,0.537,0.558,0.252,0.227,south-southwest,5.1,No
2015/04/27,02:30,0.545,0.331,0.573,0.535,0.560,0.253,0.227,southwest,5.8,No
2015/04/27,02:40,0.543,0.333,0.576,0.539,0.557,0.254,0.227,south-southwest,6.0,No
2015/04/27,02:50,0.542,0.331,0.576,0.537,0.560,0.254,0.228,southwest,6.7,No
2015/04/27,03:00,0.547,0.335,0.580,0.538,0.558,0.253,0.228,southwest,6.9,No
2015/04/27,03:10,0.543,0.333,0.577,0.536,0.559,0.254,0.227,southwest,7.3,No
2015/04/27,03:20,0.547,0.333,0.576,0.536,0.556,0.254,0.227,southwest,7.3,No
2015/04/27,03:30,0.542,0.335,0.578,0.538,0.558,0.253,0.226,southwest,8.1,No
2015/04/27,03:40,0.545,0.332,0.577,0.536,0.559,0.255,0.227,southwest,8.7,No
2015/04/27,03:50,0.541,0.332,0.577,0.537,0.559,0.253,0.228,southwest,8.6,No
2015/04/27,04:00,0.543,0.333,0.575,0.537,0.559,0.254,0.227,southwest,8.6,No
2015/04/27,04:10,0.545,0.331,0.579,0.536,0.555,0.254,0.228,southwest,8.1,No
2015/04/27,04:20,0.542,0.333,0.574,0.536,0.560,0.255,0.227,southwest,9.2,No
2015/04/27,04:30,0.545,0.334,0.579,0.535,0.554,0.254,0.229,southwest,7.6,No
2015/04/27,04:40,0.543,0.331,0.573,0.538,0.562,0.254,0.228,southwest,6.8,No
2015/04/27,04:50,0.546,0.332,0.577,0.534,0.557,0.254,0.227,south-southwest,7.9,No
2015/04/27,05:00,0.542,0.332,0.574,0.536,0.563,0.254,0.226,south-southwest,7.1,No
2015/04/27,05:10,0.547,0.334,0.576,0.538,0.556,0.253,0.228,southwest,6.0,No
2015/04/27,05:20,0.543,0.333,0.576,0.533,0.561,0.254,0.227,south-southwest,6.6,No
2015/04/27,05:30,0.544,0.333,0.575,0.537,0.557,0.254,0.228,southwest,5.5,No
2015/04/27,05:40,0.547,0.333,0.578,0.535,0.560,0.253,0.227,south-southwest,4.2,No
2015/04/27,05:50,0.542,0.332,0.575,0.537,0.557,0.252,0.227,southwest,4.3,No
2015/04/27,06:00,0.546,0.331,0.578,0.534,0.560,0.254,0.226,southwest,3.9,No
2015/04/27,06:10,0.542,0.335,0.576,0.537,0.558,0.253,0.228,southwest,6.4,No
2015/04/27,06:20,0.545,0.333,0.579,0.537,0.560,0.253,0.226,southwest,7.3,No
2015/04/27,06:30,0.546,0.333,0.577,0.534,0.555,0.254,0.227,southwest,7.0,No
2015/04/27,06:40,0.544,0.334,0.575,0.539,0.560,0.254,0.225,southwest,6.0,No
2015/04/27,06:50,0.544,0.331,0.577,0.533,0.552,0.255,0.227,south-southwest,5.1,No
2015/04/27,07:00,0.543,0.332,0.576,0.535,0.564,0.253,0.227,south-southwest,3.6,No
2015/04/27,07:10,0.545,0.330,0.570,0.535,0.556,0.254,0.225,south-southwest,3.1,No
2015/04/27,07:20,0.542,0.332,0.575,0.529,0.560,0.254,0.225,south-southwest,4.2,No
2015/04/27,07:30,0.545,0.332,0.575,0.532,0.559,0.255,0.227,south-southwest,4.7,No
2015/04/27,07:40,0.542,0.329,0.573,0.535,0.556,0.253,0.227,south-southwest,4.2,No
2015/04/27,07:50,0.543,0.330,0.579,0.529,0.563,0.254,0.224,south-southwest,5.4,No
2015/04/27,08:00,0.545,0.333,0.575,0.528,0.557,0.254,0.225,south,4.9,No
2015/04/27,08:10,0.540,0.332,0.575,0.529,0.557,0.253,0.228,south,5.4,No
2015/04/27,08:20,0.543,0.329,0.580,0.535,0.561,0.255,0.227,south,5.6,No
2015/04/27,08:30,0.540,0.329,0.573,0.535,0.556,0.254,0.225,south,6.1,No
2015/04/27,08:40,0.537,0.332,0.578,0.531,0.554,0.252,0.227,south,5.6,No
2015/04/27,08:50,0.535,0.333,0.578,0.531,0.560,0.253,0.228,south-southwest,5.9,No
2015/04/27,09:00,0.545,0.330,0.574,0.530,0.562,0.254,0.227,south,6.1,No
2015/04/27,09:10,0.546,0.330,0.581,0.529,0.557,0.253,0.225,south,5.3,No
2015/04/27,09:20,0.540,0.329,0.577,0.530,0.554,0.252,0.227,south-southwest,6.3,No
2015/04/27,09:30,0.538,0.329,0.573,0.531,0.554,0.253,0.227,south,6.3,No
2015/04/27,09:40,0.537,0.333,0.578,0.534,0.553,0.253,0.228,south,6.5,No
2015/04/27,09:50,0.546,0.335,0.580,0.534,0.555,0.254,0.225,south,7.3,No
2015/04/27,10:00,0.546,0.332,0.574,0.534,0.562,0.252,0.226,south,6.2,No
2015/04/27,10:10,0.545,0.330,0.572,0.534,0.563,0.252,0.228,south,6.4,No
2015/04/27,10:20,0.542,0.330,0.580,0.535,0.559,0.253,0.228,south,7.0,No
2015/04/27,10:30,0.539,0.329,0.581,0.533,0.556,0.254,0.226,south-southwest,8.5,No
2015/04/27,10:40,0.539,0.334,0.575,0.535,0.556,0.254,0.228,south,8.4,No
2015/04/27,10:50,0.537,0.335,0.574,0.536,0.556,0.253,0.228,south,8.8,No
2015/04/27,11:00,0.544,0.332,0.573,0.535,0.553,0.254,0.227,south,8.1,No
2015/04/27,11:10,0.549,0.331,0.572,0.535,0.555,0.255,0.226,south-southwest,7.2,No
2015/04/27,11:20,0.547,0.329,0.574,0.534,0.554,0.254,0.229,south,8.5,No
2015/04/27,11:30,0.544,0.329,0.573,0.536,0.556,0.255,0.228,south,7.2,No
2015/04/27,11:40,0.543,0.332,0.572,0.539,0.556,0.253,0.228,south,7.8,No
2015/04/27,11:50,0.540,0.335,0.574,0.538,0.557,0.253,0.226,south,8.1,No
2015/04/27,12:00,0.539,0.335,0.576,0.540,0.557,0.253,0.228,south,8.5,No
2015/04/27,12:10,0.539,0.333,0.577,0.539,0.557,0.253,0.228,south,9.1,No
2015/04/27,12:20,0.549,0.333,0.576,0.537,0.557,0.254,0.226,south,8.3,No
2015/04/27,12:30,0.548,0.330,0.577,0.539,0.558,0.255,0.229,south,8.4,No
2015/04/27,12:40,0.545,0.331,0.575,0.538,0.557,0.255,0.230,south,7.3,No
2015/04/27,12:50,0.541,0.336,0.575,0.542,0.556,0.253,0.228,south,8.8,No
2015/04/27,13:00,0.543,0.336,0.576,0.541,0.557,0.253,0.228,south,9.2,No
2015/04/27,13:10,0.549,0.333,0.576,0.540,0.556,0.253,0.228,south,9.5,No
2015/04/27,13:20,0.548,0.332,0.575,0.537,0.558,0.255,0.228,south,9.8,No
2015/04/27,13:30,0.542,0.331,0.576,0.535,0.563,0.256,0.228,south,9.8,No
2015/04/27,13:40,0.540,0.332,0.575,0.535,0.564,0.254,0.229,south,10.7,No
2015/04/27,13:50,0.552,0.336,0.575,0.537,0.563,0.254,0.226,south,10.1,No
2015/04/27,14:00,0.548,0.333,0.575,0.543,0.557,0.254,0.228,south,10.6,No
2015/04/27,14:10,0.542,0.332,0.575,0.542,0.557,0.254,0.230,south,9.8,No
2015/04/27,14:20,0.538,0.331,0.575,0.538,0.554,0.254,0.228,south,10.5,No
2015/04/27,14:30,0.547,0.335,0.575,0.533,0.554,0.254,0.229,south,10.7,No
2015/04/27,14:40,0.547,0.336,0.576,0.537,0.561,0.255,0.228,south,10.3,No
2015/04/27,14:50,0.541,0.332,0.575,0.542,0.568,0.255,0.227,south,10.4,No
2015/04/27,15:00,0.547,0.331,0.580,0.542,0.563,0.254,0.230,south,10.3,No
2015/04/27,15:10,0.549,0.336,0.583,0.537,0.560,0.253,0.228,south,10.7,No
2015/04/27,15:20,0.544,0.335,0.583,0.543,0.556,0.255,0.228,south,10.4,No
2015/04/27,15:30,0.544,0.333,0.577,0.539,0.557,0.254,0.230,south,9.9,No
2015/04/27,15:40,0.549,0.333,0.576,0.536,0.555,0.254,0.228,south,10.9,No
2015/04/27,15:50,0.543,0.334,0.582,0.541,0.558,0.254,0.230,south,11.5,No
2015/04/27,16:00,0.544,0.334,0.583,0.540,0.565,0.254,0.229,south,11.0,No
2015/04/27,16:10,0.548,0.336,0.578,0.536,0.562,0.254,0.229,south,11.3,No
2015/04/27,16:20,0.544,0.337,0.581,0.544,0.557,0.253,0.229,south,11.3,No
2015/04/27,16:30,0.541,0.334,0.584,0.538,0.557,0.255,0.230,south,11.0,No
2015/04/27,16:40,0.550,0.337,0.576,0.537,0.562,0.255,0.229,south,10.7,No
2015/04/27,16:50,0.542,0.334,0.581,0.544,0.564,0.254,0.230,south-southwest,10.8,No
2015/04/27,17:00,0.543,0.334,0.585,0.538,0.562,0.254,0.229,south-southwest,10.7,No
2015/04/27,17:10,0.551,0.336,0.579,0.541,0.554,0.255,0.230,south-southwest,10.1,No
2015/04/27,17:20,0.543,0.334,0.580,0.542,0.562,0.255,0.228,south-southwest,10.2,No
2015/04/27,17:30,0.546,0.337,0.583,0.537,0.565,0.255,0.229,south-southwest,9.5,No
2015/04/27,17:40,0.547,0.334,0.577,0.539,0.561,0.256,0.229,south-southwest,8.9,No
2015/04/27,17:50,0.543,0.334,0.578,0.541,0.560,0.255,0.230,south-southwest,8.1,No
2015/04/27,18:00,0.549,0.336,0.582,0.535,0.565,0.255,0.228,south-southwest,8.0,No
2015/04/27,18:10,0.546,0.332,0.577,0.542,0.559,0.255,0.229,south-southwest,8.1,No
2015/04/27,18:20,0.544,0.336,0.581,0.540,0.561,0.253,0.229,south-southwest,7.3,No
2015/04/27,18:30,0.547,0.334,0.581,0.538,0.565,0.255,0.229,south-southwest,5.3,No
2015/04/27,18:40,0.543,0.336,0.576,0.545,0.561,0.254,0.229,south-southwest,3.0,No
2015/04/27,18:50,0.548,0.335,0.585,0.536,0.566,0.255,0.229,south-southwest,2.1,No
2015/04/27,19:00,0.544,0.335,0.579,0.542,0.560,0.254,0.229,south-southwest,0.6,No
2015/04/27,19:10,0.547,0.335,0.581,0.540,0.564,0.256,0.228,west-southwest,1.1,No
2015/04/27,19:20,0.544,0.335,0.583,0.541,0.562,0.254,0.229,north-northwest,2.2,No
2015/04/27,19:30,0.546,0.336,0.579,0.541,0.560,0.256,0.229,north-northwest,2.4,No
2015/04/27,19:40,0.545,0.334,0.583,0.539,0.562,0.256,0.227,north-northwest,1.4,No
2015/04/27,19:50,0.543,0.336,0.577,0.542,0.560,0.255,0.229,north-northwest,1.0,No
2015/04/27,20:00,0.547,0.336,0.584,0.537,0.565,0.255,0.228,west-southwest,1.1,No
2015/04/27,20:10,0.546,0.335,0.577,0.542,0.558,0.255,0.230,west-northwest,1.3,No
2015/04/27,20:20,0.548,0.336,0.585,0.539,0.565,0.255,0.228,west,2.5,No
2015/04/27,20:30,0.544,0.334,0.578,0.544,0.558,0.255,0.230,west,2.5,No
2015/04/27,20:40,0.547,0.336,0.580,0.539,0.564,0.254,0.228,northwest,2.2,No
2015/04/27,20:50,0.545,0.334,0.579,0.543,0.559,0.255,0.229,west-northwest,1.6,No
2015/04/27,21:00,0.548,0.337,0.581,0.538,0.563,0.254,0.228,west,2.2,No
2015/04/27,21:10,0.543,0.334,0.581,0.543,0.557,0.255,0.229,west,1.6,No
2015/04/27,21:20,0.546,0.337,0.581,0.538,0.564,0.254,0.230,west-southwest,2.5,No
2015/04/27,21:30,0.544,0.336,0.581,0.541,0.558,0.255,0.230,southwest,2.2,No
2015/04/27,21:40,0.548,0.336,0.583,0.539,0.563,0.255,0.228,-,CALM,No
2015/04/27,21:50,0.546,0.335,0.580,0.543,0.558,0.255,0.229,southeast,1.1,No
2015/04/27,22:00,0.547,0.335,0.581,0.538,0.564,0.256,0.229,south,1.4,No
2015/04/27,22:10,0.546,0.336,0.577,0.543,0.558,0.254,0.228,southwest,1.4,No
2015/04/27,22:20,0.547,0.335,0.582,0.539,0.563,0.255,0.229,south-southwest,0.9,No
2015/04/27,22:30,0.547,0.336,0.580,0.542,0.556,0.255,0.229,-,CALM,No
2015/04/27,22:40,0.546,0.334,0.583,0.539,0.564,0.254,0.229,south-southwest,2.3,No
2015/04/27,22:50,0.545,0.337,0.579,0.542,0.556,0.256,0.230,south-southwest,2.5,No
2015/04/27,23:00,0.546,0.335,0.582,0.541,0.564,0.255,0.228,southwest,1.4,No
2015/04/27,23:10,0.547,0.334,0.578,0.540,0.557,0.255,0.229,south-southwest,1.4,No
2015/04/27,23:20,0.544,0.336,0.582,0.539,0.563,0.256,0.229,west-southwest,1.9,No
2015/04/27,23:30,0.549,0.335,0.578,0.542,0.557,0.254,0.228,west-southwest,2.9,No
2015/04/27,23:40,0.543,0.338,0.583,0.540,0.564,0.255,0.227,west,2.9,No
2015/04/27,23:50,0.549,0.334,0.579,0.540,0.557,0.254,0.228,west-northwest,3.3,No
